Weather Roundup
Issued by NWS

Home | Current Version | Previous Version | Graphics & Text | Print | Product List | Glossary Off
Versions: 1 2 3 4 5 6 7 8 9 10 11 12 13 14 15 16 17 18 19 20 21 22 23 24 25 26 27 28 29 30 31 32 33 34 35 36 37 38 39 40 41 42 43 44 45 46 47 48 49 50

000
NZUS93 KARX 310410
HRRWXR

CURRENT HOURLY OBSERVATIONS ACROSS
MUCH OF THE UPPER MISSISSIPPI VALLEY
NATIONAL WEATHER SERVICE LA CROSSE WI
1100 PM CDT THU OCT 30 2014


...SOUTHEAST MINNESOTA...


CITY           SKY/WX    TMP DP  RH WIND       PRES   REMARKS
ROCHESTER      CLOUDY    39  25  57 NW18G29   30.22R WCI  30
ROCHESTER/MAYO CLOUDY    39  23  52 NW18G28   30.22R WCI  30
WINONA         CLOUDY    41  28  60 NW24G31   30.20R
AUSTIN         CLOUDY    39  25  56 N20G33    30.24R WCI  30
ALBERT LEA     CLOUDY    39  27  60 N15G24    30.27R WCI  31
DODGE CENTER   CLOUDY    39  25  56 N16G24    30.24R WCI  30
PRESTON        CLOUDY    38  26  60 N17G25    30.20R WCI  29
OWATONNA       PTCLDY    39  21  48 NW20G29   30.28R WCI  30
FARIBAULT      MOCLDY    37  18  44 N18G32    30.31R WCI  27
$$

...ELSEWHERE IN MINNESOTA...


CITY           SKY/WX    TMP DP  RH WIND       PRES   REMARKS
MINNEAPOLIS    PTCLDY    34  13  41 NW28G33   30.34R WCI  21
INTNL FALLS    CLOUDY    29  17  61 N15G26    30.44R WCI  18
DULUTH         PTCLDY    29  17  61 N22G38    30.27R WCI  15
RED WING       PTCLDY    36  16  44 N12G28    30.28R WCI  27
REDWOOD FALLS  CLEAR     33  20  58 N10G22    30.42R WCI  25
MANKATO        MOCLDY   N/A N/A N/A N23G32    30.33R
WORTHINGTON    CLOUDY    34  21  60 N26G32    30.40R WCI  21
FAIRMONT       CLOUDY    37  19  48 N21G32    30.34R WCI  27
$$

...SOUTHWEST WISCONSIN...


CITY           SKY/WX    TMP DP  RH WIND       PRES   REMARKS
LA CROSSE      CLOUDY    44  29  55 N24G35    30.16R
PRAIRIE DU CHI CLOUDY    46  31  56 NW14G30   30.15R
BOSCOBEL       CLOUDY    46  31  55 N13G23    30.14R
LONE ROCK      CLOUDY    49  32  52 N18G29    30.12R
PLATTEVILLE    CLOUDY    46  39  77 NW16      30.11S
FORT MC COY    CLOUDY    42  31  64 NW12G18   30.14S
CAMP DOUGLAS   CLOUDY    41  34  75 NW10      30.11S
VIROQUA        CLOUDY    41  31  68 NW13G21   30.12F
WIS DELLS      CLOUDY    42  31  62 NW8G17    30.09S
$$

...ELSEWHERE IN WISCONSIN...


CITY           SKY/WX    TMP DP  RH WIND       PRES   REMARKS
MILWAUKEE      LGT RAIN  48  36  63 W9        30.02F
MADISON        CLOUDY    47  36  65 NW13G20   30.06S
GREEN BAY      CLOUDY    44  33  65 NW10      30.02S
EAU CLAIRE     CLOUDY    35  19  52 N12G26    30.22R WCI  27
BLACK RVR FLS  CLOUDY    41  27  57 NW13G22   30.15R
MEDFORD        CLOUDY    32  29  87 NW17G24   30.12R WCI  21
WAUSAU         CLOUDY    37  30  75 NW12G25   30.06R WCI  29
WIS RAPIDS     CLOUDY    38  33  82 NW13G20   30.10R WCI  30
MARSHFIELD     FLURRIES  35  30  82 N21G36    30.11R WCI  24
RICE LAKE      PTCLDY    32  18  57 N16G29    30.26R WCI  21
$$

...NORTHEAST IOWA...


CITY           SKY/WX    TMP DP  RH WIND       PRES   REMARKS
DECORAH        CLOUDY    43  28  56 N15G24    30.17R
MASON CITY     MOCLDY    39  28  64 N24G36    30.26R WCI  28
CHARLES CITY   CLOUDY    43  32  65 N15G23    30.22R
OELWEIN        CLOUDY    45  34  65 N22G32    30.18R
$$

...ELSEWHERE IN IOWA...


CITY           SKY/WX    TMP DP  RH WIND       PRES   REMARKS
DES MOINES     CLOUDY    49  37  63 N21G29    30.23R
IOWA CITY      CLOUDY    49  39  68 NW6       30.15R
FORT DODGE     CLOUDY    41  28  60 N13G21    30.30R
$$

...NORTHERN ILLINOIS...


CITY           SKY/WX    TMP DP  RH WIND       PRES   REMARKS
CHICAGO-OHARE  CLOUDY    46  36  68 W7        30.04F
CHICAGO-MIDWAY CLOUDY    48  37  65 W7        30.05S
MOLINE         CLOUDY    46  40  79 W6        30.11R
ROCKFORD       LGT RAIN  47  37  68 NW8       30.08F
PEORIA         CLOUDY    46  43  89 CALM      30.09R FOG
$$

NOTE: "FAIR" INDICATES FEW OR NO CLOUDS BELOW 12,000 FEET WITH NO
SIGNIFICANT WEATHER AND/OR OBSTRUCTIONS TO VISIBILITY. WIND
SPEEDS ARE IN MILES-PER-HOUR.



USA.gov is the U.S. government's official web portal to all federal, state and local government web resources and services.